Zurück zum Katalog

STARLINK-37147

AktivKommunikationSSO
NORAD 68295·PAYLOAD·🇺🇸 United States

Gestartet Mar 20, 2026 von Vandenberg Space Force Base

Loading…

Nächste Überflüge (nächste 24 Stunden)

TLE

AktuellSource: CelesTrak SupGP

Epoche: Sep 14, 2026, 22:44 UTC

1 68295C 26057B   26257.94770833 -.00032482  00000+0 -10079-2 0  2579
2 68295  97.2858  23.4422 0000983 101.6854 268.1045 15.33468924    15

Verfolge STARLINK-37147 in Echtzeit mit AllMySat

Download on the App Store